• In Schweiz
  • Länderverzeichnis
  • Für 7 Tage
  • Wassertemperatur
  • Satellitenkarten
  • Wetterkarte
  • Widgets
  • user-avatar
    Anmelden

    Stündliche Wetter Nikolaevichi

    Heute, 15 November, Donnerstag

    Zeit Temperatur Niederschläge Wind Luftdruck Luftfeuchtigkeit
    00:00 +5°C° 0 mm 3 m/S 755 mmHg 93%
    01:00 +5°C° 0 mm 3 m/S 755 mmHg 93%
    02:00 +5°C° 0 mm 2 m/S 755 mmHg 95%
    03:00 +6°C° 0.1 mm 2 m/S 756 mmHg 94%
    04:00 +5°C° 0.1 mm 3 m/S 756 mmHg 93%
    05:00 +5°C° 0.1 mm 3 m/S 756 mmHg 92%
    06:00 +5°C° 0.1 mm 3 m/S 756 mmHg 92%
    07:00 +5°C° 0.1 mm 3 m/S 756 mmHg 91%
    08:00 +5°C° 0.1 mm 3 m/S 756 mmHg 91%
    09:00 +5°C° 0.1 mm 3 m/S 757 mmHg 87%
    10:00 +6°C° 0.1 mm 4 m/S 757 mmHg 84%
    11:00 +6°C° 0.1 mm 4 m/S 757 mmHg 81%
    12:00 +6°C° 0 mm 4 m/S 758 mmHg 79%
    13:00 +6°C° 0 mm 4 m/S 758 mmHg 78%
    14:00 +6°C° 0 mm 5 m/S 758 mmHg 76%
    15:00 +5°C° 0 mm 5 m/S 758 mmHg 76%
    16:00 +4°C° 0 mm 4 m/S 759 mmHg 76%
    17:00 +4°C° 0 mm 4 m/S 759 mmHg 76%
    18:00 +3°C° 0 mm 4 m/S 760 mmHg 77%
    19:00 +3°C° 0 mm 4 m/S 760 mmHg 77%
    20:00 +1°C° 0 mm 4 m/S 761 mmHg 78%
    21:00 +1°C° 0 mm 4 m/S 761 mmHg 79%
    22:00 +2°C° 0 mm 3 m/S 761 mmHg 80%
    23:00 +2°C° 0 mm 3 m/S 761 mmHg 82%

    Morgen, 16 November, Freitag

    Zeit Temperatur Niederschläge Wind Luftdruck Luftfeuchtigkeit
    00:00 +2°C° 0 mm 3 m/S 762 mmHg 83%
    01:00 +2°C° 0 mm 3 m/S 762 mmHg 84%
    02:00 +2°C° 0 mm 3 m/S 763 mmHg 85%
    03:00 +2°C° 0 mm 3 m/S 763 mmHg 86%
    04:00 +1°C° 0 mm 3 m/S 763 mmHg 87%
    05:00 +1°C° 0 mm 3 m/S 763 mmHg 88%
    06:00 +1°C° 0 mm 3 m/S 764 mmHg 87%
    07:00 +1°C° 0 mm 3 m/S 764 mmHg 87%
    08:00 +1°C° 0 mm 3 m/S 764 mmHg 87%
    09:00 +1°C° 0 mm 3 m/S 765 mmHg 84%
    10:00 +2°C° 0 mm 3 m/S 765 mmHg 82%
    11:00 +2°C° 0 mm 3 m/S 765 mmHg 79%
    12:00 +2°C° 0 mm 3 m/S 765 mmHg 77%
    13:00 +3°C° 0 mm 3 m/S 765 mmHg 74%
    14:00 +3°C° 0 mm 3 m/S 765 mmHg 72%
    15:00 +4°C° 0 mm 2 m/S 765 mmHg 75%
    16:00 +3°C° 0 mm 2 m/S 765 mmHg 79%
    17:00 +2°C° 0 mm 2 m/S 765 mmHg 82%
    18:00 +2°C° 0 mm 2 m/S 765 mmHg 83%
    19:00 +2°C° 0 mm 2 m/S 766 mmHg 83%
    20:00 +1°C° 0 mm 2 m/S 766 mmHg 84%
    21:00 +1°C° 0 mm 2 m/S 766 mmHg 83%
    22:00 +1°C° 0 mm 2 m/S 766 mmHg 82%
    23:00 -1°C° 0 mm 2 m/S 766 mmHg 81%

    übermorgen, 17 November, Samstag

    Zeit Temperatur Niederschläge Wind Luftdruck Luftfeuchtigkeit
    00:00 -1°C° 0 mm 2 m/S 766 mmHg 79%
    01:00 -1°C° 0 mm 2 m/S 766 mmHg 78%
    02:00 -2°C° 0 mm 2 m/S 766 mmHg 76%
    03:00 -2°C° 0 mm 2 m/S 766 mmHg 74%
    04:00 -2°C° 0 mm 2 m/S 766 mmHg 72%
    05:00 0°C° 0 mm 1 m/S 766 mmHg 70%
    06:00 0°C° 0 mm 1 m/S 766 mmHg 69%
    07:00 0°C° 0 mm 1 m/S 766 mmHg 67%
    08:00 -2°C° 0 mm 2 m/S 766 mmHg 66%
    09:00 -1°C° 0 mm 2 m/S 766 mmHg 60%
    10:00 +1°C° 0 mm 2 m/S 766 mmHg 53%
    11:00 +2°C° 0 mm 2 m/S 765 mmHg 47%
    12:00 +4°C° 0 mm 1 m/S 765 mmHg 45%
    13:00 +4°C° 0 mm 1 m/S 765 mmHg 43%
    14:00 +5°C° 0 mm 1 m/S 764 mmHg 40%
    15:00 +4°C° 0 mm 1 m/S 764 mmHg 45%
    16:00 +3°C° 0 mm 1 m/S 764 mmHg 49%
    17:00 +2°C° 0 mm 1 m/S 763 mmHg 53%
    18:00 +2°C° 0 mm 1 m/S 763 mmHg 54%
    19:00 +2°C° 0 mm 1 m/S 763 mmHg 54%
    20:00 +2°C° 0 mm 1 m/S 762 mmHg 55%
    21:00 +2°C° 0 mm 1 m/S 762 mmHg 56%
    22:00 +2°C° 0 mm 1 m/S 761 mmHg 58%
    23:00 +2°C° 0 mm 1 m/S 761 mmHg 59%

    18 November, Sonntag

    Zeit Temperatur Niederschläge Wind Luftdruck Luftfeuchtigkeit
    00:00 -1°C° 0 mm 2 m/S 760 mmHg 62%
    01:00 -1°C° 0 mm 2 m/S 760 mmHg 64%
    02:00 -1°C° 0 mm 2 m/S 759 mmHg 66%
    03:00 -1°C° 0 mm 3 m/S 759 mmHg 69%
    04:00 -1°C° 0 mm 3 m/S 758 mmHg 72%
    05:00 -1°C° 0 mm 3 m/S 757 mmHg 75%
    06:00 0°C° 0 mm 3 m/S 756 mmHg 78%
    07:00 0°C° 0 mm 3 m/S 756 mmHg 80%
    08:00 0°C° 0 mm 3 m/S 755 mmHg 83%
    09:00 -1°C° 0 mm 4 m/S 754 mmHg 84%
    10:00 0°C° 0 mm 4 m/S 754 mmHg 85%
    11:00 +1°C° 0 mm 4 m/S 753 mmHg 85%
    12:00 +1°C° 0.1 mm 4 m/S 753 mmHg 86%
    13:00 +2°C° 0.1 mm 3 m/S 753 mmHg 87%
    14:00 +2°C° 0.1 mm 3 m/S 752 mmHg 88%
    15:00 +2°C° 0.1 mm 3 m/S 752 mmHg 90%
    16:00 +2°C° 0.1 mm 3 m/S 751 mmHg 91%
    17:00 +1°C° 0.1 mm 3 m/S 751 mmHg 93%
    18:00 +1°C° 0.1 mm 3 m/S 751 mmHg 93%
    19:00 +1°C° 0.1 mm 3 m/S 750 mmHg 93%
    20:00 +1°C° 0.1 mm 3 m/S 750 mmHg 93%
    21:00 +1°C° 0.2 mm 3 m/S 750 mmHg 92%
    22:00 +1°C° 0.2 mm 3 m/S 750 mmHg 92%
    23:00 +2°C° 0.2 mm 2 m/S 749 mmHg 92%

    19 November, Montag

    Zeit Temperatur Niederschläge Wind Luftdruck Luftfeuchtigkeit
    00:00 +2°C° 0.3 mm 2 m/S 749 mmHg 92%
    01:00 +2°C° 0.3 mm 2 m/S 749 mmHg 92%
    02:00 +3°C° 0.3 mm 2 m/S 749 mmHg 92%
    03:00 +2°C° 0.1 mm 2 m/S 749 mmHg 92%
    04:00 +2°C° 0.1 mm 2 m/S 749 mmHg 93%
    05:00 +2°C° 0.1 mm 2 m/S 749 mmHg 93%
    06:00 +1°C° 0.1 mm 3 m/S 749 mmHg 93%
    07:00 +1°C° 0.1 mm 3 m/S 749 mmHg 93%
    08:00 +1°C° 0.1 mm 3 m/S 749 mmHg 93%
    09:00 +1°C° 0.1 mm 3 m/S 750 mmHg 90%
    10:00 +1°C° 0.1 mm 3 m/S 750 mmHg 88%
    11:00 +1°C° 0.1 mm 4 m/S 751 mmHg 86%
    12:00 +1°C° 0.1 mm 4 m/S 751 mmHg 84%
    13:00 +1°C° 0.1 mm 4 m/S 751 mmHg 82%
    14:00 +1°C° 0.1 mm 4 m/S 751 mmHg 80%
    15:00 +1°C° 0.1 mm 4 m/S 751 mmHg 82%
    16:00 +1°C° 0.1 mm 4 m/S 751 mmHg 84%
    17:00 0°C° 0.1 mm 4 m/S 751 mmHg 86%
    18:00 0°C° 0.1 mm 4 m/S 752 mmHg 86%
    19:00 0°C° 0.1 mm 5 m/S 752 mmHg 86%
    20:00 0°C° 0.1 mm 5 m/S 752 mmHg 86%
    21:00 0°C° 0.1 mm 5 m/S 752 mmHg 86%
    22:00 -1°C° 0.1 mm 5 m/S 752 mmHg 85%
    23:00 -1°C° 0.1 mm 5 m/S 753 mmHg 85%

    20 November, Dienstag

    Zeit Temperatur Niederschläge Wind Luftdruck Luftfeuchtigkeit
    00:00 -1°C° 0 mm 5 m/S 753 mmHg 83%
    01:00 -2°C° 0 mm 5 m/S 753 mmHg 81%
    02:00 -2°C° 0 mm 5 m/S 753 mmHg 80%
    03:00 -4°C° 0 mm 5 m/S 753 mmHg 79%
    04:00 -4°C° 0 mm 5 m/S 753 mmHg 78%
    05:00 -5°C° 0 mm 5 m/S 753 mmHg 78%
    06:00 -5°C° 0 mm 5 m/S 753 mmHg 76%
    07:00 -5°C° 0 mm 5 m/S 753 mmHg 75%
    08:00 -5°C° 0 mm 5 m/S 753 mmHg 74%
    09:00 -4°C° 0 mm 6 m/S 752 mmHg 76%
    10:00 -4°C° 0 mm 6 m/S 752 mmHg 77%
    11:00 -3°C° 0 mm 6 m/S 752 mmHg 79%
    12:00 -3°C° 0 mm 6 m/S 752 mmHg 80%
    13:00 -2°C° 0 mm 6 m/S 752 mmHg 82%
    14:00 -2°C° 0 mm 6 m/S 752 mmHg 83%
    15:00 -2°C° 0.1 mm 6 m/S 751 mmHg 84%
    16:00 -2°C° 0.1 mm 6 m/S 751 mmHg 85%
    17:00 -1°C° 0.1 mm 6 m/S 751 mmHg 86%
    18:00 -1°C° 0 mm 6 m/S 751 mmHg 86%
    19:00 -1°C° 0 mm 6 m/S 750 mmHg 85%
    20:00 -1°C° 0 mm 7 m/S 750 mmHg 85%
    21:00 -2°C° 0 mm 7 m/S 750 mmHg 85%
    22:00 -2°C° 0 mm 7 m/S 749 mmHg 85%
    23:00 -2°C° 0 mm 7 m/S 749 mmHg 85%
    Mehr zeigen